THORAD AGENA D DEB, 4615

Orbit data source: Space-Track

THORAD AGENA D DEB, 4615 is space debris in SSO originally from a launch on Wed, 08 Apr 1970 UTC launched from the Air Force Western Test Range (AFWTR). Debris objects in space refer to the collection of defunct objects orbiting the Earth. Examples of debris include non-operational satellites, rocket bodies, and fragments generated from explosions, collisions, or faulty payload assembly.

Loading next visibility...
Identifier
4615, 1970-025T
Orbit
SSO
Country
Flag of USUS
Related business
Manufacturer
Unknown
Mission
Spacecraft
Bus & Motor
Unknown
Mass
Unknown
Launch date (UTC)
1970-04-08 (56 years ago)
Launch vehicle
Unknown
Launch site
Air Force Western Test Range (AFWTR)
Object type
Payload
Rocket body
Debris
Shape & HBR
Unknown shape, 0.3 m
Radar Cross Section
Medium (>0.1 m² and <1 m²)

Expand to show TLE details & history
Last TLE update: 9 hours ago

TLE from 9 hours ago
0 THORAD AGENA D DEB
1  4615U 70025T   26125.57499087  .00000285  00000-0  35998-3 0  9997
2  4615 100.1394 252.3239 0059468 218.6231 155.3482 13.72745750796794
Epoch: 2026-05-05T13:47Z
TLE epoch observation values (Epoch: 2026-05-05T13:47:59.211Z)
Latitude
13.99743°
Longitude
179.33738°
Altitude
1,031.675 km
Speed
7.317 km/s
True Right ascension
16h 39m 07s
True Declination
13° 55' 12"
Sunlit
Object was in full shadow at epoch
Visualization orbit readout
Latitude
Unknown
Longitude
Unknown
Altitude
Unknown
Speed
Unknown
Apparent Right ascension
Unknown
Apparent Declination
Unknown
Sunlit
N/A
Visualization observer readout
Local Sidereal Time
07:00:48
Azimuth
Unknown
Elevation
Unknown
Doppler factor
Unknown
Orbital elements
Apogee altitude
1,030.823 km
Perigee altitude
943.225 km
Semi-major axis
7,365.161 km
Eccentricity
0.00595
Inclination
100.1394°
RAAN
252.3239°
Arg. of periapsis
218.6231°
True anomaly
155.63053°
Mean anomaly
155.3482°
Eccentric anomaly
155.48955°
Mean motion
3.43376 °/min
Orbital period
104.84 mins
BSTAR
0.00035998
Loading maneuver chart data...
Computing Atmospheric mass density...

Documentation

Showing up to 5 results
|